星链-5244 (STARLINK-5244 )

导读

STARLINK-5244是美国太空探索技术公司(SpaceX)星链计划中的一颗卫星,于2022年10月28日发射升空,属于星链星座组网卫星,旨在为全球提供高速低延迟互联网宽带服务,依托可重复使用火箭技术部署,是星链大规模星座部署中的组成单元,服务全球偏远地区网络覆盖与多场景互联网接入需求。

基本信息
目录编号:
54199
目录名称:
STARLINK-5244
国际标识:
2022-141AU
轨道中心:
EARTH
卫星名称:
星链-5244
卫星全名:
星链-5244 (STARLINK-5244 )
卫星状态:
在轨 (已飞行1407 天)
发射日期:
2022-10-28 UTC
国别 :
美国 (US)
星等 :
--
轨道信息
数据来源 国际轨道数据
星历时间: 2026-09-02T17:27:19+0800
1天前
查看轨道信息
半长轴: 6837.887km
偏心率: 0.0001214
轨道倾角: 53.160°
近地点辐角 81.142°
升交点赤经 272.637°
平近点角 278.972°
近地点: 458.919km
远地点: 460.581km
周期: 93.787分钟
每日圈数: 15.353944
详细信息
固有亮度:
5
最大亮度:
2.5
卫星平台:
Starlink v1.5
覆盖范围:
全球
运营商:
太空探索技术公司
运营商所在国:
美国
制造商(研发单位):
太空探索技术公司
制造商所在国:
美国
使用方式:
暂无
卫星简介
星链(Starlink)计划是由太空探索技术公司(SpaceX)提出的一个巨型低轨卫星互联网星座项目,计划在2019年至2024年间在太空搭建由约1.2万颗卫星组成的“星链”网络,其中1584颗将部署在地球上空550千米处的近地轨道,并从2020年开始工作。该卫星仍在工作。
2D轨道图
3D轨道图
轨道高度分析图
轨道倾角分析图
轨道综合分析图
查看轨道综合分析图
交会数据列表
事件ID 空间交会对象 最接近时刻(TCA) 交会距离 交会风险概率(CRP) 交会风险指数(CRI) 操作
CDM_260903-032705-419905-884121
2026-09-03T
03:27:17+0000
2.734 km
极远距离
1.35393E-6 低风险 0.38
CDM_260903-064104-945505-419921
2026-09-03T
06:41:24+0000
2.799 km
极远距离
1.257347E-6 低风险 0.37
CDM_260903-110605-419906-996021
2026-09-03T
11:06:50+0000
2.922 km
极远距离
1.209091E-6 低风险 0.37
CDM_260831-072005-419906-994521
2026-08-31T
07:20:45+0000
2.955 km
极远距离
1.191734E-6 低风险 0.37
CDM_260903-113405-419906-926121
2026-09-03T
11:34:37+0000
2.580 km
极远距离
7.440071E-7 极低风险 0.32